• In Romania
  • List of Countries
  • For 7 days
  • Water Temperature
  • Satellite Maps
  • Weather Map
  • Weather Widgets
  • user-avatar
    Login

    Hourly Weather Ali Bayramli

    Today, 23 February, Thursday

    Time Temperature Precipitation Wind Pressure Humidity
    00:00 +5°C° 0 mm 4 mps 757 mmHg 56%
    01:00 +5°C° 0 mm 4 mps 757 mmHg 57%
    02:00 +4°C° 0 mm 4 mps 757 mmHg 58%
    03:00 +4°C° 0 mm 4 mps 756 mmHg 56%
    04:00 +3°C° 0 mm 5 mps 757 mmHg 57%
    05:00 +3°C° 0 mm 5 mps 757 mmHg 59%
    06:00 +2°C° 0 mm 5 mps 757 mmHg 60%
    07:00 +4°C° 0 mm 7 mps 757 mmHg 57%
    08:00 +6°C° 0 mm 9 mps 758 mmHg 53%
    09:00 +8°C° 0 mm 11 mps 758 mmHg 49%
    10:00 +9°C° 0 mm 10 mps 759 mmHg 44%
    11:00 +11°C° 0 mm 10 mps 759 mmHg 38%
    12:00 +13°C° 0 mm 9 mps 759 mmHg 33%
    13:00 +13°C° 0 mm 8 mps 760 mmHg 32%
    14:00 +13°C° 0 mm 8 mps 760 mmHg 31%
    15:00 +14°C° 0 mm 7 mps 760 mmHg 30%
    16:00 +12°C° 0 mm 5 mps 760 mmHg 36%
    17:00 +10°C° 0 mm 4 mps 761 mmHg 42%
    18:00 +9°C° 0 mm 3 mps 761 mmHg 48%
    19:00 +8°C° 0 mm 3 mps 761 mmHg 50%
    20:00 +7°C° 0 mm 3 mps 761 mmHg 51%
    21:00 +7°C° 0 mm 2 mps 762 mmHg 53%
    22:00 +5°C° 0 mm 3 mps 761 mmHg 53%
    23:00 +5°C° 0 mm 4 mps 761 mmHg 53%

    Tomorrow, 24 February, Friday

    Time Temperature Precipitation Wind Pressure Humidity
    00:00 +5°C° 0 mm 4 mps 761 mmHg 52%
    01:00 +3°C° 0 mm 5 mps 761 mmHg 51%
    02:00 +3°C° 0 mm 5 mps 761 mmHg 50%
    03:00 +3°C° 0 mm 6 mps 760 mmHg 49%
    04:00 +3°C° 0 mm 6 mps 760 mmHg 50%
    05:00 +3°C° 0 mm 7 mps 760 mmHg 51%
    06:00 +3°C° 0 mm 7 mps 760 mmHg 51%
    07:00 +4°C° 0 mm 8 mps 761 mmHg 48%
    08:00 +6°C° 0 mm 9 mps 761 mmHg 44%
    09:00 +8°C° 0 mm 10 mps 761 mmHg 40%
    10:00 +10°C° 0 mm 9 mps 762 mmHg 38%
    11:00 +12°C° 0 mm 9 mps 762 mmHg 36%
    12:00 +15°C° 0 mm 8 mps 762 mmHg 33%
    13:00 +15°C° 0 mm 7 mps 762 mmHg 33%
    14:00 +15°C° 0 mm 6 mps 762 mmHg 34%
    15:00 +17°C° 0 mm 4 mps 763 mmHg 34%
    16:00 +14°C° 0 mm 3 mps 763 mmHg 41%
    17:00 +12°C° 0 mm 3 mps 764 mmHg 47%
    18:00 +10°C° 0 mm 2 mps 764 mmHg 54%
    19:00 +10°C° 0 mm 2 mps 765 mmHg 58%
    20:00 +9°C° 0 mm 2 mps 765 mmHg 61%
    21:00 +9°C° 0 mm 2 mps 765 mmHg 65%
    22:00 +8°C° 0 mm 2 mps 765 mmHg 67%
    23:00 +7°C° 0 mm 2 mps 765 mmHg 70%

    Day after tomorrow, 25 February, Saturday

    Time Temperature Precipitation Wind Pressure Humidity
    00:00 +7°C° 0 mm 2 mps 765 mmHg 72%
    01:00 +7°C° 0 mm 2 mps 765 mmHg 71%
    02:00 +7°C° 0 mm 2 mps 765 mmHg 70%
    03:00 +6°C° 0 mm 2 mps 765 mmHg 69%
    04:00 +6°C° 0 mm 2 mps 765 mmHg 71%
    05:00 +6°C° 0 mm 2 mps 765 mmHg 73%
    06:00 +5°C° 0 mm 2 mps 765 mmHg 74%
    07:00 +7°C° 0 mm 2 mps 765 mmHg 66%
    08:00 +9°C° 0 mm 2 mps 765 mmHg 58%
    09:00 +12°C° 0 mm 2 mps 765 mmHg 50%
    10:00 +12°C° 0 mm 3 mps 764 mmHg 46%
    11:00 +14°C° 0 mm 3 mps 764 mmHg 43%
    12:00 +16°C° 0 mm 3 mps 763 mmHg 40%
    13:00 +15°C° 0 mm 4 mps 763 mmHg 39%
    14:00 +17°C° 0 mm 4 mps 762 mmHg 38%
    15:00 +17°C° 0 mm 4 mps 762 mmHg 37%
    16:00 +15°C° 0 mm 4 mps 762 mmHg 43%
    17:00 +13°C° 0 mm 4 mps 762 mmHg 49%
    18:00 +11°C° 0 mm 4 mps 762 mmHg 55%
    19:00 +11°C° 0 mm 4 mps 762 mmHg 58%
    20:00 +10°C° 0 mm 4 mps 762 mmHg 62%
    21:00 +8°C° 0 mm 4 mps 761 mmHg 65%
    22:00 +8°C° 0 mm 4 mps 761 mmHg 66%
    23:00 +9°C° 0 mm 3 mps 760 mmHg 67%

    26 February, Sunday

    Time Temperature Precipitation Wind Pressure Humidity
    00:00 +8°C° 0 mm 3 mps 760 mmHg 68%
    01:00 +8°C° 0 mm 3 mps 760 mmHg 67%
    02:00 +7°C° 0 mm 4 mps 759 mmHg 66%
    03:00 +7°C° 0 mm 4 mps 759 mmHg 65%
    04:00 +7°C° 0 mm 4 mps 758 mmHg 63%
    05:00 +6°C° 0 mm 4 mps 758 mmHg 62%
    06:00 +6°C° 0 mm 5 mps 758 mmHg 61%
    07:00 +8°C° 0 mm 6 mps 758 mmHg 54%
    08:00 +9°C° 0 mm 7 mps 758 mmHg 47%
    09:00 +11°C° 0 mm 8 mps 759 mmHg 40%
    10:00 +14°C° 0 mm 7 mps 759 mmHg 36%
    11:00 +16°C° 0 mm 7 mps 759 mmHg 32%
    12:00 +17°C° 0 mm 7 mps 759 mmHg 28%
    13:00 +17°C° 0 mm 7 mps 760 mmHg 31%
    14:00 +17°C° 0 mm 7 mps 761 mmHg 33%
    15:00 +17°C° 0 mm 7 mps 761 mmHg 35%
    16:00 +13°C° 0 mm 8 mps 762 mmHg 44%
    17:00 +11°C° 0 mm 9 mps 763 mmHg 52%
    18:00 +7°C° 0 mm 10 mps 764 mmHg 60%
    19:00 +6°C° 0 mm 10 mps 765 mmHg 61%
    20:00 +5°C° 0 mm 10 mps 766 mmHg 61%
    21:00 +3°C° 0 mm 9 mps 767 mmHg 61%
    22:00 +3°C° 0 mm 9 mps 768 mmHg 61%
    23:00 +4°C° 0 mm 8 mps 768 mmHg 61%

    27 February, Monday

    Time Temperature Precipitation Wind Pressure Humidity
    00:00 +3°C° 0 mm 7 mps 769 mmHg 61%
    01:00 +3°C° 0 mm 7 mps 769 mmHg 61%
    02:00 +3°C° 0 mm 6 mps 769 mmHg 62%
    03:00 +3°C° 0 mm 5 mps 769 mmHg 63%
    04:00 +3°C° 0 mm 5 mps 769 mmHg 64%
    05:00 +3°C° 0 mm 5 mps 769 mmHg 65%
    06:00 +3°C° 0 mm 4 mps 770 mmHg 66%
    07:00 +4°C° 0 mm 4 mps 770 mmHg 65%
    08:00 +4°C° 0 mm 4 mps 770 mmHg 63%
    09:00 +5°C° 0 mm 3 mps 770 mmHg 61%
    10:00 +7°C° 0 mm 3 mps 769 mmHg 60%
    11:00 +7°C° 0 mm 3 mps 769 mmHg 59%
    12:00 +8°C° 0 mm 3 mps 768 mmHg 58%
    13:00 +8°C° 0 mm 3 mps 768 mmHg 58%
    14:00 +9°C° 0 mm 3 mps 767 mmHg 58%
    15:00 +9°C° 0 mm 3 mps 766 mmHg 58%
    16:00 +9°C° 0 mm 3 mps 766 mmHg 62%
    17:00 +8°C° 0 mm 3 mps 766 mmHg 66%
    18:00 +7°C° 0 mm 3 mps 766 mmHg 70%
    19:00 +7°C° 0 mm 2 mps 766 mmHg 74%
    20:00 +6°C° 0 mm 2 mps 766 mmHg 78%
    21:00 +5°C° 0 mm 2 mps 766 mmHg 82%
    22:00 +5°C° 0 mm 2 mps 766 mmHg 85%
    23:00 +5°C° 0 mm 2 mps 765 mmHg 88%

    28 February, Tuesday

    Time Temperature Precipitation Wind Pressure Humidity
    00:00 +5°C° 0 mm 1 mps 765 mmHg 90%
    01:00 +5°C° 0 mm 1 mps 764 mmHg 91%
    02:00 +5°C° 0 mm 1 mps 764 mmHg 92%
    03:00 +5°C° 0 mm 1 mps 764 mmHg 93%
    04:00 +4°C° 0 mm 1 mps 764 mmHg 93%
    05:00 +4°C° 0 mm 1 mps 764 mmHg 93%
    06:00 +4°C° 0 mm 1 mps 764 mmHg 93%
    07:00 +6°C° 0 mm 1 mps 765 mmHg 86%
    08:00 +7°C° 0 mm 1 mps 765 mmHg 79%
    09:00 +9°C° 0 mm 1 mps 765 mmHg 72%
    10:00 +10°C° 0 mm 1 mps 765 mmHg 65%
    11:00 +11°C° 0 mm 1 mps 765 mmHg 58%
    12:00 +13°C° 0 mm 1 mps 765 mmHg 51%
    13:00 +13°C° 0 mm 1 mps 765 mmHg 49%
    14:00 +14°C° 0 mm 2 mps 764 mmHg 47%
    15:00 +15°C° 0 mm 2 mps 764 mmHg 45%
    16:00 +12°C° 0 mm 3 mps 765 mmHg 53%
    17:00 +11°C° 0 mm 3 mps 765 mmHg 60%
    18:00 +8°C° 0 mm 4 mps 766 mmHg 68%
    19:00 +8°C° 0 mm 4 mps 766 mmHg 71%
    20:00 +8°C° 0 mm 3 mps 766 mmHg 75%
    21:00 +7°C° 0 mm 3 mps 767 mmHg 79%
    22:00 +7°C° 0 mm 3 mps 767 mmHg 81%
    23:00 +6°C° 0 mm 2 mps 767 mmHg 83%
    Show more